Tracking 30009 objects as of 8-Dec-2024
HD Live streaming from Space Station
objects crossing your sky now

USA 48

Track USA 48 now!
USA 48 is classified as:


NORAD ID: 20355
Int'l Code: 1989-090B
Perigee: 34,482.6 km
Apogee: 36,845.5 km
Inclination: 17.3 °
Period: 1,429.5 minutes
Semi major axis: 42035 km
RCS: Unknown
Launch date: November 23, 1989
Source: United States (US)
Launch site: AIR FORCE EASTERN TEST RANGE (AFETR)
Your satellite tracking list
Your tracking list is empty




NASA's NSSDC Master Catalog

Two Line Element Set (TLE):
1 20355U 89090B   24342.63436184  .00000046  00000-0  00000-0 0  9991
2 20355  17.2980 346.1378 0281062 101.6576  69.6449  1.00736207  2153
Source of the keplerian elements: McCants